Regional Weather Roundup
Issued by NWS Upton, NY

Current Version | Previous Version | Graphics & Text | Print | Product List | Glossary Off
Versions: 1 2 3 4 5 6 7 8 9 10 11 12 13 14 15 16 17 18 19 20 21 22 23 24 25 26 27 28 29 30 31 32 33 34 35 36 37 38 39 40 41 42 43 44 45 46 47 48 49 50

618
ASUS41 KOKX 192013 CCA
RWROKX

REGIONAL WEATHER ROUNDUP
NATIONAL WEATHER SERVICE NEW YORK NY
313 PM EST THU JAN 19 2017

NOTE: "FAIR" INDICATES FEW OR NO CLOUDS BELOW 12,000 FEET WITH NO
SIGNIFICANT WEATHER AND/OR OBSTRUCTIONS TO VISIBILITY.

NYZ071-072-176-178-NJZ106-104-192100-
NEW YORK CITY METRO AREA

CITY           SKY/WX    TMP DP  RH WIND       PRES   REMARKS
CENTRAL PARK   CLOUDY    45  34  65 VRB3      30.02S
WALL ST HELIPT NOT AVBL
BRONX BOT GARD NOT AVBL
LAGUARDIA APRT CLOUDY    46  34  62 NW13      29.99S
KENNEDY INTL   PTSUNNY   49  33  54 NW13      30.00R
BREEZY POINT     N/A     45 N/A N/A N10         N/A
NEWARK/LIBERTY CLOUDY    46  34  62 NW12G20   30.00S
TETERBORO      CLOUDY    45  35  68 NW12      29.99S
$$

NYZ177-179-078>081-192100-
LONG ISLAND NEW YORK

CITY           SKY/WX    TMP DP  RH WIND       PRES   REMARKS
JONES BEACH      N/A     46 N/A N/A NW9         N/A
MATINECOCK PT  NOT AVBL
FARMINGDALE    CLOUDY    48  35  60 N9        29.97F
MACARTHUR/ISP  CLOUDY    48  35  60 N8        29.96F
SHIRLEY        CLOUDY    47  36  65 N8        29.97S
WESTHAMPTON    MOSUNNY   47  34  60 NW12G20   29.97F
SOUTHAMPTON    NOT AVBL
BRIDGEHAMPTON  NOT AVBL
EAST HAMPTON     N/A     46  34  63 N9        29.95S
MONTAUK          N/A     46  36  68 NW9       29.95F
$$

NYZ052-065-067-192100-
HUDSON VALLEY

CITY           SKY/WX    TMP DP  RH WIND       PRES   REMARKS
WHITE PLAINS   PTSUNNY   45  34  65 NW9       29.97S
NEWBURGH       PTSUNNY   46  36  66 VRB6      29.98S
MONTGOMERY     CLOUDY    47  34  60 W7        29.95F
POUGHKEEPSIE   SUNNY     45  34  65 NW8       29.97S
ALBANY         CLOUDY    41  33  73 W10       30.00S
$$

NJZ001-105-106-008-010-013-015-019>022-104-192100-
NEW JERSEY

CITY           SKY/WX    TMP DP  RH WIND       PRES   REMARKS
NEWARK/LIBERTY CLOUDY    46  34  62 NW12G20   30.00S
TETERBORO      CLOUDY    45  35  68 NW12      29.99S
CALDWELL       CLOUDY    44  34  67 NW6       30.00F
SOMERVILLE     CLOUDY    45  34  65 VRB5      29.99F
LINDEN         CLOUDY    45  34  65 N8        30.01S
SUSSEX         CLOUDY    42  33  70 NW6       30.00S
ANDOVER          N/A     41  33  73 VRB5      29.99F
TRENTON        CLOUDY    44  35  70 N10       30.01F
MILLVILLE      CLOUDY    49  37  63 NW8       30.00F
ATLANTIC CITY  CLOUDY    50  36  58 NW9       30.00F
WRIGHTSTOWN    CLOUDY    46  36  68 N9        29.98F
TOMS RIVER     CLOUDY    47  36  65 W10       30.00F
BELMAR         CLOUDY    46  36  68 W8        30.00S
$$

PAZ047>061-062-071-192100-
EASTERN PENNSYLVANIA

CITY           SKY/WX    TMP DP  RH WIND       PRES   REMARKS
PHILADELPHIA   CLOUDY    47  35  63 N9G21     30.02F
ALLENTOWN      CLOUDY    46  33  60 NW6       30.01F
SCRANTON       CLOUDY    40  34  79 NW6       29.99F
$$

CTZ002-004>006-009-010-012-RIZ004-006-007-MAZ004-011-015-192100-
SOUTHERN NEW ENGLAND
 IN CT

CITY           SKY/WX    TMP DP  RH WIND       PRES   REMARKS
BRADLEY INTL   PTSUNNY   45  32  60 N10       29.96S
HARTFORD       PTSUNNY   46  33  60 N8        29.96S
DANBURY        CLOUDY    45  33  63 NW6       29.97S
WTRBURY/OXFORD PTSUNNY   45  30  57 NW9       29.97S
BRIDGEPORT     CLOUDY    49  34  56 NW9       29.97S
MERIDEN        PTSUNNY   48  32  53 N8        29.96S
NEW HAVEN      PTSUNNY   47  34  60 NW14      29.96S
CHESTER          N/A     46  34  61 NW6       29.94F
GROTON         PTSUNNY   49  34  56 N12       29.94F
WILIMANTIC     PTSUNNY   47  35  63 NW5       29.96S

 IN RI

CITY           SKY/WX    TMP DP  RH WIND       PRES   REMARKS
PROVIDENCE     PTSUNNY   46  33  60 NW6       29.94S
BLOCK ISLAND   NOT AVBL
WESTERLY       CLOUDY    48  32  53 NW7       29.95S
 IN MA

CITY           SKY/WX    TMP DP  RH WIND       PRES   REMARKS
BOSTON         PTSUNNY   44  33  65 NW13      29.95R
WORCESTER      CLOUDY    39  30  70 NW8       29.92S WCI  33
WESTFIELD      CLOUDY    42  33  70 NW8       29.96R
PROVINCETOWN   SUNNY     42  37  82 NW8       29.94S
NANTUCKET      SUNNY     44  35  70 NW8       29.93S
$$

ANZ330-335-338-340-345-350-353-355-192100-
COASTAL MARINE OBSERVATIONS


STATION/POSITION TIME  SKY/WX   TEMP    WIND        PRES    VSBY
WAVE                                AIR SEA DIR/SP/G
 HT/PER                 (UTC)          (F)     (DEG/KT/KT) (MB)
(MI)  (FT/S) NY HARB ENTRANCE 1850            46 45  290/  8/ 10
1015.3          4/11 20 S FIRE ISLAND 1850            44 46  290/
8/ 10 1015.1          5/10 GREAT SOUTH BAY  NOT AVBL 23 SSW MONTAUK
P 1850            44 48  300/ 14/ 17 1015.2          5/10 15 E
BARNEGAT LI 1930               48                N/A           6/10
HUDSON CANYON    1850            46 51              1015.1
8/11 KINGS POINT      1948            43 39              1015.4
EXECUTION ROCKS  1945            44     320/  8/ 10   N/A CENTRAL LI
SOUND 1930            43     280/  6/  8   N/A           1 EASTERN
LI SOUND NOT AVBL ROBBINS REEF     1948            44     330/ 10/
15 1016.0
$$


>>>>>>>>>>>>>>>>>>>>>>>>>>>> KEY <<<<<<<<<<<<<<<<<<<<<<<<<<<
>                                                          <
>     SKY/WX - SKY CONDITION/PRESENT WEATHER               <
>     TMP    - TEMPERATURE IN FAHRENHEIT                   <
>     DP     - DEW POINT IN FAHRENHEIT                     <
>     RH     - RELATIVE HUMIDITY IN PERCENT                <
>     WIND   - DIRECTION (FROM) AND SPEED IN MPH           <
>     PRES   - MEAN SEA LEVEL PRESSURE (INCHES OF HG)      <
>     WCI    - WIND CHILL INDEX                            <
>     VSB    - VISIBILITY IN MILES                         <
>     HX     - HEAT INDEX                                  <
>     TC     - TEMPERATURE IN CELSIUS                      <
>     VRB    - VARIABLE WIND DIRECTION                     <
>                                                          <
>>>>>>>>>>>>>>>>>>>>>>>>>>>> KEY <<<<<<<<<<<<<<<<<<<<<<<<<<<



USA.gov is the U.S. government's official web portal to all federal, state and local government web resources and services.